Wind_Speed
11 12 12 12 12 11 10 10 10 9 8 8 7 7 7 7 7 7 8 9 10 11 13 15 18 21 23 26 29 31 34 37 39 41 44 46 49 51 53 55 57 59 61 63
13 13 13 14 14 13 13 12 11 10 9 9 9 9 9 9 9 9 10 10 11 13 14 17 19 22 25 28 30 33 36 39 41 43 46 48 51 53 56 58 60 62 64 65
14 15 15 15 16 16 15 14 13 12 12 12 12 11 11 11 12 12 13 13 14 15 17 19 21 24 27 29 32 35 38 40 43 45 47 50 52 55 58 60 62 64 66 67
15 16 16 17 18 18 17 17 16 15 15 15 15 14 14 15 15 15 16 17 17 18 19 22 24 26 29 31 34 36 39 42 44 47 49 52 54 57 59 62 64 66 68 70
16 17 18 18 19 20 20 20 19 19 19 19 18 18 17 18 18 19 20 20 21 21 22 24 27 29 31 34 36 38 40 43 46 48 51 53 55 58 61 64 66 68 70 71
18 19 19 20 21 21 22 23 23 23 23 22 21 22 19 20 21 22 23 24 25 25 26 28 29 32 34 36 38 40 42 45 47 49 52 54 57 59 62 65 67 69 71 73
19 20 20 21 22 23 24 25 26 26 26 25 25 26 22 23 24 25 26 27 28 29 30 31 33 35 37 39 41 43 45 46 48 50 53 55 58 60 63 66 68 70 72 74
20 20 22 22 24 25 25 27 28 31 30 29 29 29 25 26 27 28 29 30 32 32 33 34 36 38 40 42 44 45 47 48 50 51 54 56 58 61 64 67 69 71 73 74
23 22 23 24 25 26 27 28 30 34 35 35 34 32 28 27 29 31 32 33 34 35 36 37 39 40 42 44 46 47 49 50 51 52 54 57 59 61 65 68 70 72 74 75
26 25 24 25 26 27 30 30 32 35 38 39 38 35 31 29 31 34 35 36 37 38 39 40 41 43 44 46 48 49 51 52 53 54 55 57 60 62 65 68 71 73 74 75
29 29 26 27 27 29 30 32 34 37 40 43 44 38 32 33 35 37 38 40 41 41 42 43 44 45 46 47 49 51 52 53 54 55 56 58 60 62 65 69 71 73 74 75
31 31 29 28 29 30 31 32 34 38 40 44 47 42 32 35 37 40 42 43 44 44 44 45 46 47 48 49 50 52 53 54 55 55 56 58 60 62 65 69 72 74 74 75
33 33 33 31 31 32 33 34 35 39 42 45 48 44 36 38 40 43 46 47 47 46 46 46 47 48 49 50 52 53 54 55 55 56 57 58 60 63 65 69 72 74 74 74
36 36 35 35 34 36 36 35 36 40 43 45 46 46 40 39 42 46 49 49 48 47 47 48 49 50 50 52 53 54 55 56 56 56 57 59 61 63 66 69 72 74 74 73
39 39 37 37 36 39 41 39 38 40 42 46 45 46 43 41 45 47 49 50 49 49 49 50 50 51 52 53 54 54 55 56 56 57 58 60 61 64 66 69 72 73 73 72
41 42 41 40 38 42 44 40 39 40 42 44 46 46 42 44 47 48 49 50 50 50 50 51 52 52 53 54 55 55 56 57 57 58 59 61 62 64 66 69 71 72 72 71
42 43 45 45 43 46 45 39 40 41 42 43 45 45 44 46 47 48 48 49 50 50 51 52 52 53 54 55 56 56 57 57 58 59 60 61 63 65 67 69 70 70 70 70
44 45 47 49 49 51 45 42 42 44 44 44 45 45 46 47 48 47 48 50 51 51 52 53 54 55 56 56 57 58 58 59 59 60 61 62 64 66 68 69 69 69 68 68
46 47 49 52 54 55 48 43 45 48 48 45 48 48 48 49 49 48 50 51 52 53 54 55 56 57 57 58 59 59 59 59 60 61 62 63 65 66 67 67 67 67 67 66
48 49 52 54 57 59 51 48 49 51 51 49 51 51 51 51 51 51 51 52 53 54 56 57 58 58 59 59 60 59 59 60 62 63 63 64 64 65 66 66 66 66 65 65
51 53 54 56 60 60 53 51 52 54 54 53 54 55 56 56 56 56 56 56 57 58 59 60 60 60 60 60 60 60 59 60 62 62 63 63 63 64 64 65 64 64 63 62
54 56 56 58 61 59 55 55 55 56 57 58 59 59 60 61 60 60 60 60 60 60 60 61 61 60 59 59 60 60 60 60 61 62 62 62 62 62 62 62 62 61 61 60
55 56 58 59 60 58 58 58 58 59 61 62 63 62 62 62 61 61 61 61 61 61 61 61 60 60 59 59 59 59 59 60 60 60 60 61 61 61 60 60 58 57 57 58
52 54 56 57 56 56 57 58 59 61 63 64 64 63 61 61 60 59 58 59 60 60 59 59 58 58 58 58 58 58 58 59 59 59 60 60 59 59 58 57 56 55 55 55
45 46 48 49 48 50 51 53 55 58 60 60 60 60 59 59 58 58 57 57 57 56 55 55 55 55 55 55 55 56 57 58 58 58 58 57 57 56 55 54 53 53 53 53
37 40 44 45 43 47 47 48 50 52 53 54 55 55 55 56 55 54 54 54 54 54 53 53 53 53 52 53 53 54 54 54 55 55 56 56 55 54 53 52 50 50 51 50
Wind_Direction
293 295 294 291 288 286 281 274 267 267 271 278 282 286 288 293 298 304 310 316 323 328 333 337 339 341 343 343 342 341 340 339 339 338 338 337 337 337 336 335 334 332 331 329
289 292 293 288 283 277 272 269 267 268 270 272 276 280 282 286 291 296 302 308 316 322 327 332 335 338 340 341 341 341 341 339 339 338 338 337 337 337 336 336 335 334 332 331
286 289 289 284 278 273 271 269 267 267 268 271 274 277 282 284 289 294 299 304 311 318 323 328 331 334 337 339 340 340 340 340 339 338 338 337 337 337 336 336 336 335 334 333
283 286 287 284 280 275 271 270 268 267 267 270 274 277 282 286 289 293 299 304 310 316 320 324 327 330 333 335 336 338 338 338 338 338 338 337 337 337 337 337 336 336 335 335
281 283 285 284 281 277 273 270 269 268 268 270 275 278 284 288 290 294 299 304 309 313 317 321 323 326 328 330 333 334 336 336 337 337 337 337 336 336 337 337 337 337 336 336
280 282 284 283 282 278 274 272 270 268 269 271 274 278 285 288 291 294 298 303 307 310 314 317 319 322 324 327 329 331 333 334 335 335 335 336 336 336 337 337 337 337 337 337
280 282 283 283 281 278 275 273 272 270 270 272 273 277 286 287 291 294 298 302 305 308 311 315 318 320 322 324 326 328 330 331 332 333 334 334 335 336 337 337 338 338 338 338
281 282 283 283 281 279 276 274 273 273 273 272 273 277 285 287 290 293 297 300 303 306 309 312 315 317 319 321 323 325 327 328 330 331 332 332 334 335 336 337 338 338 338 339
284 283 283 283 282 281 278 274 272 272 273 273 274 278 281 286 289 292 295 297 299 303 306 309 311 314 316 318 320 322 324 326 327 328 329 331 332 334 335 336 337 338 338 339
283 283 283 283 282 281 279 277 274 273 275 276 277 278 283 284 287 291 293 294 297 300 303 306 309 312 314 316 318 320 322 323 325 327 328 329 331 332 334 336 337 338 339 339
283 284 284 283 283 282 280 279 277 276 276 278 280 281 284 286 288 291 292 293 296 299 302 304 307 309 311 313 315 317 319 321 323 324 326 327 329 331 333 335 336 337 338 340
284 286 286 285 285 284 282 280 278 277 277 278 281 287 287 286 288 289 290 291 295 298 300 302 305 307 309 311 313 315 317 319 320 322 324 326 327 329 332 334 336 337 338 339
283 285 286 285 285 283 282 281 279 278 278 280 283 291 292 287 286 286 288 291 294 297 298 300 302 304 306 308 311 313 315 317 318 320 322 324 326 328 330 333 335 336 337 339
282 283 285 286 286 285 283 282 282 282 283 284 286 290 288 287 285 285 287 290 293 295 297 298 300 302 304 306 309 311 313 315 316 318 320 322 324 326 328 331 334 335 336 338
282 283 283 283 284 284 284 285 286 287 288 287 290 289 292 289 284 284 286 289 292 294 295 296 298 300 302 304 306 309 311 313 315 317 318 320 322 324 327 329 332 334 335 337
282 284 284 283 283 282 283 288 290 289 289 289 290 291 293 289 286 287 288 289 291 292 293 294 296 297 300 302 305 307 309 311 313 315 316 318 320 322 325 328 331 333 334 336
280 282 284 284 283 281 283 289 288 288 289 290 291 292 290 288 287 288 288 289 289 290 291 293 294 296 298 301 303 306 308 309 311 313 315 316 318 320 323 326 329 331 333 334
280 281 282 283 283 281 287 288 290 288 287 290 291 289 288 287 287 288 288 287 288 289 289 291 293 295 297 299 301 304 306 307 309 311 313 315 317 319 321 324 327 329 331 333
280 281 281 282 283 284 288 292 291 290 289 292 291 289 288 287 287 286 286 286 287 288 289 290 292 294 296 298 300 302 304 305 307 309 311 313 315 317 320 323 326 328 330 332
276 277 279 281 282 285 291 291 291 289 290 290 288 288 287 287 286 286 285 286 286 287 289 290 292 294 296 298 299 301 302 304 305 307 309 311 313 316 318 321 324 326 328 330
278 278 278 280 282 285 290 290 289 289 290 287 287 287 287 286 286 286 286 286 286 287 289 290 292 294 296 297 299 301 302 303 304 306 308 310 312 314 317 319 322 324 326 328
279 279 280 281 282 287 288 286 285 286 285 285 285 285 285 285 285 286 286 287 287 288 289 290 292 293 295 297 298 300 301 302 304 306 308 310 311 313 315 318 320 322 324 326
280 280 281 281 283 285 285 285 284 284 284 284 284 285 285 286 286 287 287 288 288 289 290 291 293 294 295 296 297 299 300 302 304 305 307 308 310 312 314 317 319 321 323 324
283 282 282 283 284 283 283 283 283 283 283 284 284 285 285 285 286 287 288 289 290 290 291 292 293 294 295 296 297 299 300 301 303 305 306 308 310 311 313 316 318 319 321 323
289 288 284 283 285 283 282 281 280 280 281 283 285 286 287 288 288 288 290 291 292 292 292 293 294 295 296 296 297 298 299 301 303 305 306 308 310 312 313 315 317 318 319 322
292 287 285 286 286 284 286 285 284 284 284 284 284 285 286 287 290 290 291 292 293 293 293 293 294 296 296 297 298 299 300 302 304 305 307 308 310 311 312 314 316 317 318 321
Height
5886 5885 5883 5881 5880 5878 5876 5875 5873 5871 5869 5867 5865 5863 5861 5858 5856 5854 5852 5849 5846 5843 5840 5836 5832 5828 5824 5819 5813 5807 5801 5795 5788 5781 5773 5765 5756 5747 5738 5728 5718 5707 5695 5683
5884 5882 5880 5878 5876 5875 5874 5872 5870 5868 5866 5864 5862 5860 5858 5856 5854 5852 5849 5846 5843 5840 5836 5832 5828 5823 5818 5813 5807 5801 5795 5788 5781 5773 5765 5756 5747 5738 5728 5718 5706 5695 5683 5670
5880 5879 5876 5875 5873 5872 5870 5868 5866 5865 5863 5861 5859 5858 5856 5853 5850 5848 5846 5843 5839 5836 5831 5827 5823 5818 5813 5807 5801 5795 5788 5781 5773 5765 5756 5747 5738 5728 5718 5707 5695 5683 5670 5656
5876 5874 5873 5871 5869 5867 5866 5864 5862 5861 5859 5857 5856 5854 5852 5849 5846 5844 5842 5838 5835 5831 5827 5822 5817 5812 5807 5801 5795 5788 5781 5773 5765 5756 5748 5738 5729 5718 5708 5696 5683 5670 5656 5642
5872 5870 5869 5867 5865 5863 5861 5859 5858 5856 5854 5853 5850 5849 5848 5845 5842 5839 5837 5833 5830 5826 5821 5817 5812 5806 5801 5794 5788 5781 5773 5765 5757 5748 5739 5729 5719 5709 5697 5685 5672 5658 5644 5629
5867 5866 5864 5862 5860 5858 5856 5854 5852 5850 5848 5848 5846 5843 5843 5840 5838 5835 5831 5828 5824 5820 5815 5811 5805 5800 5793 5787 5780 5773 5765 5757 5749 5740 5730 5721 5710 5699 5687 5675 5661 5647 5632 5616
5863 5861 5859 5857 5855 5853 5851 5849 5847 5844 5843 5843 5839 5837 5838 5835 5832 5829 5825 5821 5817 5813 5808 5803 5798 5792 5786 5779 5772 5765 5757 5749 5740 5731 5722 5712 5701 5690 5677 5665 5651 5636 5621 5605
5857 5856 5854 5852 5849 5847 5845 5843 5841 5838 5836 5835 5832 5830 5833 5829 5826 5822 5818 5815 5810 5806 5801 5796 5790 5784 5778 5771 5764 5756 5749 5740 5732 5722 5713 5703 5692 5680 5668 5655 5642 5626 5611 5594
5851 5851 5849 5846 5843 5841 5839 5837 5834 5831 5827 5826 5824 5824 5826 5823 5818 5815 5811 5807 5803 5798 5793 5788 5782 5776 5770 5763 5755 5748 5740 5732 5723 5714 5704 5694 5683 5671 5659 5646 5632 5617 5601 5585
5844 5844 5843 5840 5837 5835 5832 5830 5828 5824 5819 5817 5816 5816 5818 5816 5811 5807 5803 5799 5794 5790 5785 5780 5774 5768 5761 5754 5747 5739 5731 5722 5714 5704 5695 5685 5674 5662 5650 5637 5622 5607 5592 5575
5837 5837 5837 5834 5831 5829 5826 5824 5820 5816 5812 5809 5805 5810 5811 5808 5803 5799 5794 5789 5785 5781 5776 5770 5765 5759 5752 5745 5737 5729 5721 5713 5704 5695 5685 5675 5664 5653 5641 5628 5613 5598 5583 5566
5830 5829 5828 5827 5825 5821 5818 5816 5813 5809 5805 5800 5795 5800 5805 5800 5794 5789 5784 5779 5775 5771 5766 5761 5755 5749 5742 5735 5727 5720 5712 5703 5695 5686 5676 5666 5655 5644 5631 5618 5604 5589 5574 5558
5823 5821 5820 5819 5819 5815 5810 5808 5804 5800 5796 5792 5787 5790 5795 5790 5784 5778 5773 5769 5765 5761 5756 5751 5745 5739 5732 5725 5718 5710 5702 5694 5685 5676 5667 5656 5646 5634 5622 5609 5595 5581 5566 5550
5814 5813 5812 5810 5808 5804 5801 5800 5796 5792 5787 5783 5780 5779 5783 5780 5773 5767 5762 5757 5754 5750 5745 5740 5734 5728 5721 5715 5708 5700 5692 5684 5675 5666 5657 5647 5636 5625 5613 5600 5587 5573 5558 5542
5804 5804 5802 5801 5799 5794 5791 5790 5788 5783 5779 5774 5772 5769 5770 5767 5760 5755 5751 5746 5742 5738 5734 5728 5722 5716 5710 5704 5697 5689 5682 5674 5665 5656 5647 5637 5626 5615 5603 5591 5578 5564 5550 5535
5795 5793 5791 5791 5789 5784 5780 5782 5779 5774 5770 5765 5761 5759 5759 5752 5747 5743 5739 5735 5731 5726 5721 5716 5711 5705 5699 5692 5686 5678 5671 5663 5655 5646 5636 5627 5616 5605 5594 5582 5569 5556 5542 5528
5786 5783 5779 5777 5777 5772 5772 5775 5769 5765 5762 5756 5751 5749 5745 5740 5735 5731 5727 5723 5718 5714 5709 5704 5698 5693 5687 5681 5674 5667 5660 5652 5643 5635 5626 5616 5606 5595 5584 5573 5561 5548 5534 5520
5775 5772 5767 5764 5763 5758 5766 5763 5759 5753 5751 5747 5740 5735 5732 5727 5723 5720 5715 5710 5705 5701 5696 5691 5686 5681 5675 5668 5662 5655 5648 5640 5632 5623 5614 5605 5595 5585 5574 5563 5552 5540 5527 5513
5764 5760 5755 5751 5746 5744 5752 5753 5746 5739 5738 5736 5726 5722 5718 5714 5711 5708 5702 5697 5692 5687 5683 5678 5673 5668 5662 5656 5649 5643 5636 5628 5620 5611 5603 5594 5584 5574 5564 5553 5542 5531 5519 5506
5752 5749 5744 5739 5732 5730 5741 5738 5731 5726 5724 5721 5712 5707 5703 5699 5697 5694 5689 5684 5679 5674 5669 5664 5660 5655 5649 5642 5636 5630 5623 5615 5607 5599 5591 5582 5573 5563 5553 5543 5533 5523 5511 5499
5737 5734 5731 5726 5719 5718 5727 5723 5716 5712 5709 5703 5698 5693 5689 5684 5681 5678 5674 5670 5665 5660 5655 5650 5646 5641 5635 5628 5622 5616 5609 5602 5594 5586 5578 5570 5561 5552 5543 5534 5524 5514 5503 5492
5722 5719 5717 5713 5707 5708 5712 5705 5702 5697 5691 5687 5683 5679 5673 5669 5666 5662 5658 5654 5650 5645 5641 5636 5631 5626 5621 5614 5608 5602 5596 5588 5581 5573 5566 5557 5549 5541 5532 5524 5515 5505 5495 5484
5708 5707 5702 5698 5696 5696 5692 5689 5685 5680 5675 5670 5666 5663 5658 5653 5650 5647 5643 5640 5635 5630 5626 5621 5616 5612 5607 5600 5594 5588 5582 5575 5568 5560 5553 5546 5538 5530 5522 5514 5505 5496 5487 5477
5694 5692 5686 5682 5681 5681 5677 5672 5668 5663 5657 5653 5649 5646 5642 5637 5634 5631 5628 5624 5619 5615 5610 5605 5601 5597 5592 5586 5580 5574 5568 5561 5555 5548 5541 5534 5526 5519 5511 5504 5496 5488 5479 5470
5680 5676 5670 5666 5667 5663 5660 5656 5651 5646 5641 5637 5634 5630 5626 5621 5618 5616 5612 5609 5604 5600 5596 5591 5586 5582 5577 5572 5566 5560 5554 5548 5542 5536 5529 5522 5515 5508 5501 5494 5486 5479 5471 5462
5667 5661 5656 5653 5652 5646 5643 5639 5635 5630 5626 5622 5618 5615 5612 5607 5603 5600 5597 5593 5590 5586 5582 5577 5572 5568 5563 5558 5553 5547 5541 5535 5530 5524 5518 5511 5504 5498 5491 5484 5477 5470 5463 5455